NOAA 17 DEB, 48720

Orbit data source: Space-Track

NOAA 17 DEB, 48720 is space debris in SSO originally from a launch on Mon, 24 Jun 2002 UTC launched from the Air Force Western Test Range (AFWTR). Debris objects in space refer to the collection of defunct objects orbiting the Earth. Examples of debris include non-operational satellites, rocket bodies, and fragments generated from explosions, collisions, or faulty payload assembly.

Loading next visibility...
Identifier
48720, 2002-032BD
Orbit
SSO
Country
Flag of USUS
Related business
Manufacturer
Unknown
Mission
Spacecraft
Bus & Motor
Unknown
Mass
Unknown
Launch date (UTC)
2002-06-24 (24 years ago)
Launch vehicle
Unknown
Launch site
Air Force Western Test Range (AFWTR)
Object type
Payload
Rocket body
Debris
Shape & HBR
Unknown shape, 0.1 m
Radar Cross Section
Medium (>0.1 m² and <1 m²)

Expand to show TLE details & history
Last TLE update: 2 days ago

TLE from 2 days ago
0 NOAA 17 DEB
1 48720U 02032BD  26171.27521630  .00005808  00000-0  13438-2 0  9993
2 48720  98.8303 180.3194 0027546 336.9231  23.0725 14.55318158275421
Epoch: 2026-06-20T06:36Z
TLE epoch observation values (Epoch: 2026-06-20T06:36:18.688Z)
Latitude
-0.00005°
Longitude
172.74936°
Altitude
693.336 km
Speed
7.519 km/s
True Right ascension
12h 01m 16s
True Declination
0° 00' 00"
Sunlit
Object was in daylight at epoch
Visualization orbit readout
Latitude
Unknown
Longitude
Unknown
Altitude
Unknown
Speed
Unknown
Apparent Right ascension
Unknown
Apparent Declination
Unknown
Sunlit
N/A
Visualization observer readout
Local Sidereal Time
00:50:13
Azimuth
Unknown
Elevation
Unknown
Doppler factor
Unknown
Orbital elements
Apogee altitude
724.962 km
Perigee altitude
685.937 km
Semi-major axis
7,083.586 km
Eccentricity
0.00275
Inclination
98.8303°
RAAN
180.3194°
Arg. of periapsis
336.9231°
True anomaly
23.1966°
Mean anomaly
23.0725°
Eccentric anomaly
23.13451°
Mean motion
3.64052 °/min
Orbital period
98.89 mins
BSTAR
0.0013438
Loading maneuver chart data...
Computing Atmospheric mass density...

Documentation

Showing up to 5 results
|